This is the latest recevied weather packets stored in our database for station/object K0JRF-13. If no packets are shown the sender has not sent any weather packets the latest 10 day(s).
| Time | Temp. | Humidity | Pressure | Rain* | Wind** | Luminosity | Snow |
|---|---|---|---|---|---|---|---|
| 1788031792 | 25° C | 45% | 1022 hPa | 0 mm | - | - | - |
| 1788031192 | 24.44° C | 43% | 1022 hPa | 0 mm | - | - | - |
| 1788030592 | 24.44° C | 44% | 1022 hPa | 0 mm | - | - | - |
| 1788029992 | 24.44° C | 44% | 1022 hPa | 0 mm | - | - | - |
| 1788029392 | 25.56° C | 43% | 1022.4 hPa | 0 mm | - | - | - |
| 1788028792 | 24.44° C | 44% | 1022.4 hPa | 0 mm | - | - | - |
| 1788028192 | 24.44° C | 42% | 1022.4 hPa | 0 mm | - | - | - |
| 1788027592 | 25.56° C | 44% | 1022.4 hPa | 0 mm | - | - | - |
| 1788026992 | 23.89° C | 41% | 1022.7 hPa | 0 mm | - | - | - |
| 1788026392 | 25° C | 42% | 1022.7 hPa | 0 mm | - | - | - |
| 1788025792 | 25° C | 44% | 1023 hPa | 0 mm | - | - | - |
| 1788025192 | 25° C | 43% | 1022.7 hPa | 0 mm | - | - | - |
| 1788024592 | 25° C | 43% | 1023 hPa | 0 mm | - | - | - |
| 1788023992 | 24.44° C | 45% | 1023 hPa | 0 mm | - | - | - |
| 1788023392 | 24.44° C | 47% | 1023.4 hPa | 0 mm | - | - | - |
| 1788022792 | 23.89° C | 47% | 1023.4 hPa | 0 mm | - | - | - |
| 1788022192 | 25° C | 45% | 1023.7 hPa | 0 mm | - | - | - |
| 1788021593 | 23.33° C | 47% | 1023.4 hPa | 0 mm | - | - | - |
| 1788020992 | 24.44° C | 46% | 1023.4 hPa | 0 mm | - | - | - |
| 1788020393 | 24.44° C | 45% | 1023.7 hPa | 0 mm | - | - | - |
| 1788019792 | 23.33° C | 47% | 1023.7 hPa | 0 mm | - | - | - |
| 1788019192 | 22.78° C | 47% | 1023.7 hPa | 0 mm | - | - | - |
| 1788018593 | 22.78° C | 47% | 1024 hPa | 0 mm | - | - | - |
| 1788017992 | 22.78° C | 46% | 1023.7 hPa | 0 mm | - | - | - |
| 1788017392 | 22.78° C | 48% | 1024 hPa | 0 mm | - | - | - |
* Rain latest hour (hover to see other rain measurements)
** Current wind speed in m/s (hover to see current wind gust speed)